Location: Emporia
(38.4040°N, 96.1810°W)
Time: 08:43:09
(UTC-05:00)

Amateur Radio Satellites - All Passes

Search period start: 16 April 2014 08:13
Search period end: 17 April 2014 08:13
Location: Emporia, 38.4040°N, 96.1810°W

Satellite Date Start Highest point End Downlink Frequencies (MHz)
Time Altitude Azimuth
JAS-2 16 Apr 08:29:41 08:35:00 68° 102° (ESE) 08:40:48 435.800 - 435.900 CW/SSB, 435.910 FM
MaSat-1 16 Apr 08:33:25 08:36:20 65° 65° (ENE) 08:39:47 437.345 MHz
SO-67 16 Apr 08:38:16 08:41:47 73° 101° (E) 08:45:16 435.3500 MHz FM
RS-15 16 Apr 09:04:07 09:15:22 66° 305° (NW) 09:26:18 29.354 - 29.394 USB, Beacon 29.352 USB
Oscar 10/S400 16 Apr 09:47:49 10:55:47 11° 110° (ESE) 11:49:48 145.825 - 145.975 CW/USB, Beacon 145.810 USB
Sapphire 16 Apr 10:11:41 10:15:40 20° 48° (NE) 10:19:36 437.095 MHz 1200 baud AX-25 AFSK
JAS-2 16 Apr 10:16:49 10:19:38 15° 297° (WNW) 10:22:33 435.800 - 435.900 CW/SSB, 435.910 FM
PANSAT 16 Apr 10:28:55 10:29:40 11° 163° (SSE) 10:30:26 not established
HO-68 16 Apr 10:30:04 10:37:12 64° 103° (ESE) 10:44:18 435.675 MHz FM
Oscar 11 16 Apr 10:56:06 11:00:20 49° 100° (E) 11:04:33 145.825 FM, Beacon 2401.500 USB
PCSat 16 Apr 10:56:09 11:01:23 47° 57° (ENE) 11:06:35 145.825 MHz
RS-15 16 Apr 11:22:14 11:30:21 22° 333° (NNW) 11:38:25 29.354 - 29.394 USB, Beacon 29.352 USB
Sapphire 16 Apr 11:54:10 11:59:30 61° 246° (WSW) 12:04:48 437.095 MHz 1200 baud AX-25 AFSK
KITSAT 1 16 Apr 12:01:49 12:08:36 28° 44° (NE) 12:15:18 435.175 FM
PANSAT 16 Apr 12:06:33 12:09:13 18° 175° (S) 12:11:53 not established
FUNcube-1 16 Apr 12:11:45 12:15:59 73° 284° (WNW) 12:20:16 145.950 - 145.970 MHz USB
HO-68 16 Apr 12:18:49 12:24:19 25° 300° (WNW) 12:29:50 435.675 MHz FM
Saudisat 1A 16 Apr 12:32:24 12:36:51 76° 119° (ESE) 12:41:19 436.775 MHz
Oscar 11 16 Apr 12:33:46 12:36:05 14° 295° (WNW) 12:38:25 145.825 FM, Beacon 2401.500 USB
PCSat 16 Apr 12:40:21 12:44:27 22° 254° (WSW) 12:48:33 145.825 MHz
Oscar 19 16 Apr 13:09:34 13:13:15 20° 65° (ENE) 13:16:56 437.125 CW, 437.150 USB
Oscar 16 16 Apr 13:16:41 13:20:49 25° 67° (ENE) 13:24:58 437.025 USB, Beacon 2401.1428
AO-Echo 16 Apr 13:39:01 13:42:13 17° 64° (ENE) 13:45:24 ?
RS-15 16 Apr 13:42:16 13:48:41 17° 11° (N) 13:55:06 29.354 - 29.394 USB, Beacon 29.352 USB
Uribyol 2 16 Apr 13:45:42 13:49:51 25° 66° (ENE) 13:54:01 436.500 FM
PANSAT 16 Apr 13:46:21 13:48:50 16° 188° (S) 13:51:18 not established
KITSAT 1 16 Apr 13:56:38 14:04:42 73° 245° (WSW) 14:12:42 435.175 FM
Saudisat 1A 16 Apr 14:14:36 14:16:59 14° 317° (NW) 14:19:21 436.775 MHz
AO-27 16 Apr 14:23:03 14:28:06 55° 72° (ENE) 14:33:10 436.795 MHz FM
ITAMSAT 1 16 Apr 14:34:33 14:39:42 70° 74° (ENE) 14:44:52 435.822 SSB
Oscar 19 16 Apr 14:47:19 14:52:13 47° 261° (W) 14:57:11 437.125 CW, 437.150 USB
TMSAT-1 16 Apr 14:48:16 14:52:05 21° 65° (ENE) 14:55:55 436.925 FM
Oscar 16 16 Apr 14:55:16 14:59:58 36° 262° (W) 15:04:42 437.025 USB, Beacon 2401.1428
AO-7 16 Apr 15:08:54 15:14:04 19° 52° (NE) 15:19:15 29.400 - 29.500 MHz
JAS-1B 16 Apr 15:13:38 15:20:07 27° 65° (ENE) 15:25:49 435.800 - 435.900 CW/SSB
AO-Echo 16 Apr 15:15:16 15:20:29 61° 259° (W) 15:25:38 ?
Uribyol 2 16 Apr 15:24:23 15:29:07 37° 262° (W) 15:33:53 436.500 FM
Uosat F 16 Apr 15:32:41 15:36:14 20° 65° (ENE) 15:39:47 435.120 FM
Gurwin Techsat 1B 16 Apr 15:35:55 15:41:13 81° 75° (ENE) 15:46:32 435.225 FM
RS-15 16 Apr 15:55:23 16:05:27 39° 44° (NE) 16:15:39 29.354 - 29.394 USB, Beacon 29.352 USB
KITSAT 1 16 Apr 15:56:18 15:58:40 12° 262° (W) 16:01:02 435.175 FM
AO-27 16 Apr 16:04:44 16:07:56 16° 268° (W) 16:11:08 436.795 MHz FM
SO-50 16 Apr 16:08:42 16:12:15 23° 112° (ESE) 16:15:49 436.795 FM
OPAL 16 Apr 16:12:05 16:17:19 78° 105° (ESE) 16:22:32 ?
ITAMSAT 1 16 Apr 16:17:29 16:19:39 13° 269° (W) 16:21:50 435.822 SSB
TMSAT-1 16 Apr 16:26:33 16:31:38 48° 261° (W) 16:36:45 436.925 FM
AO-7 16 Apr 16:57:23 17:05:40 84° 71° (ENE) 17:13:59 29.400 - 29.500 MHz
JAS-1B 16 Apr 17:01:54 17:10:23 61° 258° (WSW) 17:17:30 435.800 - 435.900 CW/SSB
ISS 16 Apr 17:09:35 17:12:56 88° 318° (NW) 17:16:18 145.800 FM
Uosat F 16 Apr 17:09:50 17:14:39 46° 260° (W) 17:19:30 435.120 FM
Gurwin Techsat 1B 16 Apr 17:20:23 17:21:45 11° 271° (W) 17:23:08 435.225 FM
SO-50 16 Apr 17:48:31 17:52:37 34° 308° (NW) 17:56:45 436.795 FM
OPAL 16 Apr 17:53:02 17:55:31 14° 301° (WNW) 17:58:00 ?
RS-15 16 Apr 18:07:37 18:18:21 64° 246° (WSW) 18:29:25 29.354 - 29.394 USB, Beacon 29.352 USB
JAS-2 16 Apr 18:41:46 18:46:23 24° 67° (ENE) 18:50:41 435.800 - 435.900 CW/SSB, 435.910 FM
STRAND 1 16 Apr 18:47:36 18:49:13 11° 90° (E) 18:50:50 ?
ISS 16 Apr 18:47:55 18:50:06 16° 338° (NNW) 18:52:17 145.800 FM
Hamsat 16 Apr 18:48:11 18:52:21 72° 76° (ENE) 18:56:34 145.90 MHz
UOSAT-12 16 Apr 18:48:48 18:53:12 54° 117° (ESE) 18:57:44 437.025 FM, 437.400 FM
AO-7 16 Apr 18:54:02 18:59:17 18° 268° (W) 19:04:35 29.400 - 29.500 MHz
SO-67 16 Apr 19:11:27 19:13:59 19° 70° (ENE) 19:16:32 435.3500 MHz FM
STRAND 1 16 Apr 20:23:49 20:28:55 74° 286° (WNW) 20:33:58 ?
JAS-2 16 Apr 20:25:29 20:31:17 44° 260° (W) 20:36:33 435.800 - 435.900 CW/SSB, 435.910 FM
RS-15 16 Apr 20:27:10 20:28:25 10° 265° (W) 20:29:41 29.354 - 29.394 USB, Beacon 29.352 USB
UOSAT-12 16 Apr 20:30:27 20:33:42 19° 315° (NW) 20:36:59 437.025 FM, 437.400 FM
SO-67 16 Apr 20:44:19 20:47:01 21° 265° (W) 20:49:44 435.3500 MHz FM
HO-68 16 Apr 20:57:07 21:03:39 41° 65° (ENE) 21:10:13 435.675 MHz FM
Saudisat 1A 16 Apr 21:00:54 21:05:03 38° 53° (NE) 21:09:08 436.775 MHz
Oscar 11 16 Apr 21:49:59 21:53:49 32° 71° (ENE) 21:57:39 145.825 FM, Beacon 2401.500 USB
ISS 16 Apr 22:04:05 22:06:00 14° 19° (NNE) 22:07:54 145.800 FM
MaSat-1 16 Apr 22:35:56 22:38:59 47° 113° (ESE) 22:41:39 437.345 MHz
Saudisat 1A 16 Apr 22:41:10 22:44:22 20° 249° (WSW) 22:47:33 436.775 MHz
HO-68 16 Apr 22:44:54 22:51:20 36° 262° (W) 22:57:49 435.675 MHz FM
FUNcube-1 16 Apr 23:06:52 23:11:06 74° 76° (ENE) 23:15:17 145.950 - 145.970 MHz USB
Oscar 11 16 Apr 23:26:53 23:30:03 20° 266° (W) 23:33:13 145.825 FM, Beacon 2401.500 USB
ISS 16 Apr 23:39:55 23:43:17 66° 37° (NE) 23:46:37 145.800 FM
SO-50 17 Apr 00:41:32 00:44:42 18° 45° (NE) 00:47:54 436.795 FM
Sapphire 17 Apr 00:52:37 00:56:38 22° 106° (ESE) 01:00:39 437.095 MHz 1200 baud AX-25 AFSK
ISS 17 Apr 01:18:19 01:19:37 12° 232° (SW) 01:20:55 145.800 FM
PCSat 17 Apr 01:36:13 01:41:30 59° 113° (ESE) 01:46:49 145.825 MHz
OPAL 17 Apr 01:49:58 01:52:30 14° 59° (ENE) 01:55:02 ?
SO-50 17 Apr 02:21:03 02:25:38 59° 242° (WSW) 02:30:17 436.795 FM
KITSAT 1 17 Apr 02:30:52 02:36:07 19° 102° (ESE) 02:41:22 435.175 FM
Sapphire 17 Apr 02:34:27 02:39:40 48° 302° (WNW) 02:44:55 437.095 MHz 1200 baud AX-25 AFSK
AO-27 17 Apr 02:38:23 02:42:22 22° 94° (E) 02:46:20 436.795 MHz FM
ITAMSAT 1 17 Apr 02:49:31 02:53:55 28° 96° (E) 02:58:18 435.822 SSB
Oscar 10/S400 17 Apr 02:50:35 03:07:54 30° 134° (SE) 03:51:08 145.825 - 145.975 CW/USB, Beacon 145.810 USB
Oscar 19 17 Apr 03:00:09 03:05:21 71° 102° (ESE) 03:10:32 437.125 CW, 437.150 USB
Oscar 16 17 Apr 03:07:55 03:13:09 89° 104° (ESE) 03:18:21 437.025 USB, Beacon 2401.1428
UOSAT-12 17 Apr 03:19:56 03:24:13 33° 51° (NE) 03:28:26 437.025 FM, 437.400 FM
PCSat 17 Apr 03:21:17 03:25:19 21° 312° (NW) 03:29:21 145.825 MHz
AO-Echo 17 Apr 03:24:29 03:29:08 48° 99° (E) 03:33:40 ?
OPAL 17 Apr 03:25:46 03:30:44 71° 256° (WSW) 03:35:49 ?
Uribyol 2 17 Apr 03:38:05 03:43:17 89° 104° (ESE) 03:48:28 436.500 FM
Gurwin Techsat 1B 17 Apr 03:54:00 03:58:53 36° 97° (E) 04:03:44 435.225 FM
AO-27 17 Apr 04:17:11 04:22:00 41° 290° (WNW) 04:26:49 436.795 MHz FM
KITSAT 1 17 Apr 04:22:23 04:30:31 83° 299° (WNW) 04:38:42 435.175 FM
ITAMSAT 1 17 Apr 04:28:49 04:33:23 33° 292° (WNW) 04:37:57 435.822 SSB
Oscar 19 17 Apr 04:41:25 04:44:04 14° 298° (WNW) 04:46:43 437.125 CW, 437.150 USB
TMSAT-1 17 Apr 04:43:41 04:48:59 78° 103° (ESE) 04:54:16 436.925 FM
JAS-1B 17 Apr 04:49:15 04:54:29 37° 98° (E) 04:59:52 435.800 - 435.900 CW/SSB
Oscar 16 17 Apr 04:50:18 04:51:42 11° 300° (WNW) 04:53:07 437.025 USB, Beacon 2401.1428
UOSAT-12 17 Apr 05:00:16 05:04:15 28° 248° (WSW) 05:08:12 437.025 FM, 437.400 FM
AO-7 17 Apr 05:01:19 05:08:27 31° 97° (E) 05:15:32 29.400 - 29.500 MHz
AO-Echo 17 Apr 05:04:27 05:07:29 17° 296° (WNW) 05:10:29 ?
Uosat F 17 Apr 05:18:52 05:23:49 61° 101° (ESE) 05:28:44 435.120 FM
Uribyol 2 17 Apr 05:20:35 05:21:59 11° 300° (WNW) 05:23:23 436.500 FM
Gurwin Techsat 1B 17 Apr 05:34:18 05:38:39 27° 293° (WNW) 05:43:00 435.225 FM
STRAND 1 17 Apr 06:01:38 06:04:43 16° 63° (ENE) 06:07:47 ?
RS-15 17 Apr 06:19:55 06:28:11 24° 102° (ESE) 06:36:13 29.354 - 29.394 USB, Beacon 29.352 USB
KITSAT 1 17 Apr 06:21:16 06:27:11 21° 321° (NW) 06:33:07 435.175 FM
TMSAT-1 17 Apr 06:25:49 06:28:13 13° 299° (WNW) 06:30:37 436.925 FM
Hamsat 17 Apr 06:36:58 06:39:27 15° 92° (E) 06:41:56 145.90 MHz
JAS-1B 17 Apr 06:40:26 06:45:02 26° 295° (WNW) 06:49:41 435.800 - 435.900 CW/SSB
AO-7 17 Apr 06:53:28 07:01:30 56° 294° (WNW) 07:09:33 29.400 - 29.500 MHz
Uosat F 17 Apr 06:59:15 07:02:05 15° 297° (WNW) 07:04:54 435.120 FM
JAS-2 17 Apr 07:35:38 07:39:48 22° 96° (E) 07:44:13 435.800 - 435.900 CW/SSB, 435.910 FM
STRAND 1 17 Apr 07:38:21 07:43:23 59° 259° (W) 07:48:27 ?
